sat.trackr.live / text

‹ back to catalog

STARLINK-35410

NORAD 66024 · 2025-232V

PAYLOAD ACTIVE UNKNOWN

§ Identity

Operator
Country
US
Launch date
2025-10-16
Launch site
AFETR
Launch vehicle
Mass (kg)
RCS (m²)

Purposes: comms

External: N2YO · Heavens-Above · Gunter

§ Orbital elements

Epoch: 2026-09-20T05:49:42.662496Z

Period
93.85 min
Inclination
53.1594°
Eccentricity
0.0001288
Mean motion
15.34404038 rev/d
Perigee alt
461.8 km
Apogee alt
463.6 km
Semi-major
6,840.8 km
B*
4.8551e-4
RAAN
276.6017°
Arg perigee
105.0608°
Mean anomaly
255.0538°
Rev number
5,327

§ Raw data

STARLINK-354101 66024U 25232V   26263.24285489  .00016065  00000+0  48551-3 0  99962 66024  53.1594 276.6017 0001288 105.0608 255.0538 15.34404038 53272

JSON: /api/v1/satellites/66024 · /tle

For live sub-satellite position, see the globe view (requires WebGL).

§ Visibility from observer

Set your observer location to see the next 7 days of passes ≥ 10°. The values pass through the URL so the page stays shareable.

No JS? Fill the form by hand. The geolocation button needs JavaScript.